MSG 1 DEB (BAFFLE COVER), 39999

Orbit data source: Space-Track

MSG 1 DEB (BAFFLE COVER), 39999 is space debris in GEO originally from a launch on Wed, 28 Aug 2002 UTC launched from the French Guiana (FRGUI). Debris objects in space refer to the collection of defunct objects orbiting the Earth. Examples of debris include non-operational satellites, rocket bodies, and fragments generated from explosions, collisions, or faulty payload assembly.

Not visible in the next 10 days
Identifier
39999, 2002-040F
Orbit
GEO
Last TLE update
2 weeks ago
Origin
Manufacturer
SENER
Mission
Spacecraft
Bus & Motor
MSG COVER, Unknown motor
Mass
3.9 kg wet, 3.9 kg dry
Launch date (UTC)
2002-08-28 (23 years ago)
Launch vehicle
Unknown
Launch site
French Guiana (FRGUI)
Object type
Payload
Rocket body
Debris
Shape & HBR
Box, 1.25 m
Radar Cross Section
0.435 m²

Expand to show TLE details & history

TLE from 2 weeks ago
0 MSG 1 DEB (BAFFLE COVER)
1 39999U 02040F   25114.82775986 -.00000193  00000-0  00000-0 0  9994
2 39999  11.8343  17.0247 0094522  99.2226  91.0917  1.01979676 37827
Epoch: 2025-04-24T19:51Z
Definitive object data (Epoch: 2025-04-24T19:51:58.451Z)
Latitude
-2.33384°
Longitude
57.0986°
Altitude
35,325.784 km
Speed
3.091 km/s
True Right ascension
13h 52m 44s
True Declination
-2° 19' 53"
Sunlit
Object was in daylight at TLE epoch
Visualization TLE readout
Latitude
-11.42227°
Longitude
151.51815°
Altitude
35,707.484 km
Speed
3.063 km/s
Apparent Right ascension
19h 47m 51s
Apparent Declination
-15° 48' 10"
Sunlit
Object is in daylight
Visualization observer readout
Local Sidereal Time
04:04:24
Azimuth
279.804° WNW
Elevation
-36.079°
Doppler factor
1
Orbital elements
Apogee altitude
35,709.618 km
Perigee altitude
34,921.424 km
Semi-major axis
41,693.658 km
Eccentricity
0.0094522
Inclination
11.8343°
RAAN
17.0247°
Arg. of periapsis
99.2226°
True anomaly
92.17434°
Mean anomaly
91.0917°
Eccentric anomaly
91.63305°
Mean motion
0.25494 °/min
BSTAR
Unknown
Orbital period
1412.1 mins
Loading historical data...
39999 neighbors
Loading maneuver chart data...
Loading SW <> Apogee altitude chart data...
Loading historical data...
Loading historical data...
Loading historical data...
Loading historical data...
Loading historical data...
Loading historical data...
Loading historical data...

MSG 1 DEB (BAFFLE COVER) Visibility forecast

Observer location: undefined°, undefined°

MSG 1 DEB (BAFFLE COVER) is not visible in the next 10 days
Span
Click to sort rows by Start time (UTC) header in descending order
Start Az.
Max El. time (UTC)
Max El. Az.
Max El.
End time (UTC)
End Az.
|